Tracking 19717 objects as of 25-Jun-2019
HD Live streaming from Space Station
objects crossing your sky now

SL-8 DEB

Track SL-8 DEB now!
10-day predictions


NORAD ID: 21401
Int'l Code: 1991-009BQ
Perigee: 1,499.9 km
Apogee: 1,727.8 km
Inclination: 74.1 °
Period: 118.3 minutes
Semi major axis: 7984 km
RCS: 0.0527 m2 (small)
Launch date: February 12, 1991
Source: Commonwealth of Independent States (former USSR) (CIS)
Launch site: PLESETSK MISSILE AND SPACE COMPLEX (PKMTR)

Note: This is SATELLITE DEBRIS
aabbcc
Your satellite tracking list
Your tracking list is empty




NASA's NSSDC Master Catalog

Two Line Element Set (TLE):
1 21401U 91009BQ  19175.40364014 +.00000104 +00000-0 +11534-2 0  9993
2 21401 074.1353 308.1658 0142685 314.3335 075.9193 12.16760341256527
Source of the keplerian elements: AFSPC